Tracking 17636 objects as of 30-April-2016
HD Live streaming from Space Station
objects crossing your sky now

NAVSTAR 33 (USA 92)

Track NAVSTAR 33 (USA 92) now!
NAVSTAR 33 (USA 92) is classified as:


NORAD ID: 22700
Int'l Code: 1993-042A
Perigee: 21,198.3 km
Apogee: 21,241.8 km
Inclination: 55.9 °
Period: 760.2 minutes
Semi major axis: 27591 km
RCS: 3.4011 m2 (large)
Launch date: June 26, 1993
Source: United States (US)
Launch site: AIR FORCE EASTERN TEST RANGE (AFETR)
PRN:
Your satellite tracking list
Your tracking list is empty





NASA's NSSDC Master Catalog

Two Line Element Set (TLE):
1 22700U 93042A   16120.21167534 -.00000005  00000-0  00000+0 0  9993
2 22700  55.8637 298.5077 0007874 310.8001  22.1533  1.89431051167040
Source of the keplerian elements: AFSPC

N2YO: 265